Location: *
(51.2167°N, 10.0667°E)
Time: 10:58:19
(UTC+00:00)

Meteor 1-28 Rocket - Pass Details

Date: 12 December 2019
Orbit: 505 x 522 km, 97.3° (Epoch: 23 January)

Event Time Altitude Azimuth Distance (km) Brightness Sun altitude
Rises 16:08:19 0° 7° (N) 2,643 6.5 -8.3°
Reaches altitude 10° 16:10:30 10° 0° (N) 1,754 5.6 -8.6°
Maximum altitude 16:14:04 41° 290° (WNW) 762 4.5 -9.1°
Drops below altitude 10° 16:17:37 10° 220° (SW) 1,749 7.0 -9.6°
Sets 16:19:47 0° 213° (SSW) 2,635 7.9 -9.9°
